Location: ?????
(31.8092°N, 35.2590°E)
Time: 17:31:49
(UTC+00:00)

Tiangong - Pass Details

Date: 27 September 2021
Orbit: 382 x 384 km, 41.5° (Epoch: 20 October)

Event Time Altitude Azimuth Distance (km) Brightness Sun altitude
Exits shadow 02:58:56 - 286° (WNW) 1,469 3.4 -7.5°
Reaches altitude 10° 02:59:09 10° 288° (WNW) 1,393 3.3 -7.4°
Maximum altitude 03:01:43 22° 343° (NNW) 877 2.7 -6.9°
Drops below altitude 10° 03:04:17 10° 38° (NE) 1,394 4.5 -6.4°
Sets 03:06:38 0° 54° (NE) 2,248 6.0 -5.9°
